Find AISat-1

NORAD ID: 40054 Int'l Des: 2014-034 Owner: DLR2 Country: D operational
LEOCIRCULARRETROGRADE

Live Position

Loading 3D Globe...

About AISat-1

Description loading...

Upcoming Passes

Passes for default location (London). Set your location on the main map for personalized predictions.

Altitude History

Loading altitude history...

Two-Line Element Set

1 40054U 14034B 26106.46272084 .00005363 00000-0 35636-3 0 9996
2 40054 98.2435 14.4256 0011342 73.5372 286.7099 15.07620558637901
Epoch: Apr 16, 2026 • Age: 15 hours

Current Status

Altitude 549.5 km
Velocity 7.60 km/s
Sub-Earth Point 75.04°N, 5.9°W
Launch Date Jun 30, 2014
Age 11.7 years
Type other

Technical Details

Classification Payload
Mass 10.00 kg
Dry Mass 10.00 kg
Total Mass 10.00 kg
Length 0.10 m
Diameter 0.20 m
Span 4.00 m
Shape Box+helix
Manufacturer DLRB
Bus Type CLAVIS
Phase Status In Orbit
Owner/State DLR2/D

Most Searched